Springe zum Inhalt

Test

wswin-custom WS2500 V1.2 - Standort Drove (Gemeinde Kreuzau/Kreis Düren/Land NRW)
Wetterübersicht - Drove (Gemeinde Kreuzau/Kreis Düren/Land NRW)     180 m über NN
Datum Donnerstag, 5. November 2020
Zeit 16:30 (-1h = UTC-Zeit)
Stationswettervorhersage (berechnet)
⇐ aktuelle Wetterentwicklung ~ ~ ~ weitere Wetteraussichten ⇒
z.Z. überwiegend sonnig ~ ~ ~ später heiter ⇒ veränderlich
der Wind dreht von O auf O und weht mit 2 Bft ⇒ unverändert
Temperatur der nächsten 2 - 3h: zwischen 9,2°C und 6,4°C ⇓ fallend
Temperatur Außen
Grafik: letzten 8h (Skallierung: 5°)
aktuell
8,9 °C
Min.(05:15)
-0,7 °C
Max.(13:00)
11,2 °C
Durchschnitt
4,1 °C
Luftfeuchte Außen
Grafik: letzten 8h (Skallierung: 10%)
aktuell
68 %
Min.(14:00)
63 %
Max.(08:45)
95 %
Durchschnitt
84 %
Taupunkt
Grafik: letzten 8h (Skallierung: 5°)
aktuell
3,3 °C
Min.(05:15)
-1,7 °C
Max.(11:30)
5,8 °C
Durchschnitt
1,5 °C
Luftdruck



10 Min-Tendenz

aktuell
1035,3 hPa
-2,2 hPa/6h
Min.(15:30)
1035,1 hPa
Max.(08:15)
1038,1 hPa
Durchschnitt
1036,8 hPa
+0,2 hPa/1h -0,9 hPa/2h -0,9 hPa/3h -1,8 hPa/12h -0,6 hPa/24h
Windchill
(neue Formel)

Grafik: letzten 8h (Skallierung: 5°)
aktuell
7,9 °C
Min.(05:15)
-0,7 °C
Max.(13:00)
11,2 °C
Durchschnitt
4,1 °C
Windgeschwindigkeit
Grafik: letzten 8h (Skallierung: 1 Bft)
aktuell
7,1 km/h (2 Bft)
Max.(13:45)
O 13,6 km/h (3 Bft)
Durchschnitt
3,0 km/h (1 Bft)
Windrichtung leichte Brise mit 2 Bft aus O ±22.5° dom. Windrichtung
O
berechnete Werte
ohne Sensoren/ID
ThetaE (180 m)
22,0 °C
Appar.-Temp.
6,1 °C
abs. Feuchte
5,95 g/m³
Luftdichte
1,2476 kg/m³
Windlast
kp/m²
berechnete Strahlungswerte
ohne Sensoren/ID
(*Messwert mit Sensor-ID)
Helligkeit*
78 %
Helligkeit lux
0,876 klux
Solarstrahlung
7 w/m²
UV-Strahlung
0,0 UV-I
met. Temperatursummen
Kältesumme
0,2 (Bezugstemp. 0 °C)
Wärmesumme
120,5 (Bezugstemp. 20,0 °C)
Grünlandtemp.
204,2 (22.02.2020)
Horizontsichtweite*
(berechnet)
heiter
ca. 22 - 30 km (Richtung W-SW ca. 13 - 18 km)
Sichtweitenskala
1 2-10 km 11-20 km 21-30 km 31-40 km 41-50 km 51-60+ km
Sonnenscheinzeit heute*
(prozentual zur rel. Tageslänge)
(Sonnenstunden akt.)
ø Bewölkung
10% 20% 30% 40% 50% 60% 70% 80% 90% 100%
1h 2h 3h 4h 5h 6h 7h 8h 9h 10h 11h 12h 13h 14h 15h 16h 17h
Schwülegrad
sehr gering gering - leicht leicht - mittel mittel - erhöht erhöht - stark stark - sehr stark extrem
Wolkentemperatur

Wolkenuntergrenze m ü. Grund
Schneefallgrenze m ü. NN

(berechnet)
für Anzeige Vollbild klicken
< |     
     200 400 600 800 1000 1200 1400 1600 1800 2000
Niederschlag
letzte Std. 0,0 mm
heute 0,4 mm
letzten 24 Std. 0,4 mm
aktuelle Woche 4,9 mm
aktueller Monat 5,9 mm
letzter Monat 50,7 mm
November Vorjahr 82,4 mm
aktuelles Jahr 509,8 mm
Regen / Jahr 148 Tage
12-Tage Grafik
(25.10.2020 - 05.11.2020)
Skala: 0-10 mm
Skalenauflösung: 1,0 mm
12-Monats Grafik
(Dezember 2019 - November 2020)
Skala: 0-200 mm
Skalenauflösung: 20,0 mm
Evapotranspiration
heute 0,9 mm
akt. Monat 4,4 mm
Vormonat (Oktober) 29,3 mm
akt. Jahr 801,2 mm
12-Monats Grafik
(Dezember 2019 - November 2020)
Skala: 0-200 mm
Skalenauflösung: 20,0 mm
12-Monats Grafik
klim. Wasserbilanz (-208 mm)
(Dezember 2019 - November 2020)
Skala: +/-125 mm
Skalenauflösung: 25,0 mm
Sonnenstunden*
heute 7:44 h
gestern 8:15 Stunden
aktuelle Woche 18:13 h
aktueller Monat 21:22 h (157,0 %)*
Vormonat (Oktober) 103:22 h (79,2 %)
aktuelles Jahr 2136:56 h (119,0 %)*
12-Tage Grafik
(25.10.2020 - 05.11.2020)
Skala: 0-10 h
Skalenauflösung: 1,0 h
12-Monats Grafik
(Dezember 2019 - November 2020)
Skala: 0-400 h
Skalenauflösung: 40,0 h
historisches zum 5. November
Tmin -0,7 °C 05.11.2020
Tmin ø -0,2 °C 05.11.2020
WCmin -6,8 °C 05.11.2013
Tmax 19,0 °C 05.11.2015
Tmax ø 14,4 °C 05.11.2010
WCmin ø -2,0 °C 05.11.2013
Regen max 6,5 mm 05.11.2017
Böen max 0,0 km/h 05.11.2005
TPmax 12,5 °C 05.11.2015
Mond
Alter des Mondes19 Tage, 7 Stunden, 27 Minuten
Mondaufgang20:10
Mondzenit03:47
Monduntergang12:16
Mondphaseß 78%
(0% = Neumond, 100% = Vollmond)
letztes Viertel14:47    8. November 2020
erstes Viertel05:46    22. November 2020
nächster Vollmond10:30    30. November 2020
nächster Neumond06:08    15. November 2020
Sonne
Sonnenaufgang gestern07:31    4. November 2020
Sonnenaufgang07:32
Sonnenzenit12:17
Sonnenuntergang17:01
Tageslicht noch 0:31 h
Sonnenaufgang morgen07:34    6. November 2020
Tageslänge09:28 h
Nachtlänge 14:32 h
Die dargestellten Werte repräsentieren die Daten des aktuellen Tages! Der Luftdruck ist auf Meereshöhe bezogen!
Die Mond-/Sonnen-Daten beziehen sich auf die Standortkoordinaten von 50° 43' 47" Nord  -  6° 30' 49" Ost
Die Wettervorhersage wurde berechnet - ohne Gewähr!
WS2500 V1.2 | DIV: 15 | RMA: 0.100 | WSWIN: 0h | V: 15.05.2019
© 1999-2020 Werner Krenn - Wetterstation Bedien- und Auswertesoftware - V2.99.8.8

Klimakenntage



Aktuelles Tagesdiagramm Vortagesdiagramm
für Anzeige Vollbild klicken für Anzeige Vollbild klicken



Aktuelles Wochendiagramm Aktuelles Monatsdiagramm
für Anzeige Vollbild klicken für Anzeige Vollbild klicken
wswin-custom WS2500 V1.2 - Standort Drove (Gemeinde Kreuzau/Kreis Düren/Land NRW)
Webcam

Optimiert f�r Mozilla Browser und eine Bildschirmaufl�sung von 1152 x 864 Pixel

                

 

 

 

 

 

Voreifel und Wetter

Die Webcam

Bei der Webcam handelt es sich um eine IP-Netzwerkkamera mit der Bezeichnung �Cellvision CAS 330W�. Die Kamera ist in einem Kameraschutzgeh�use mit Heizung (Betrieb von -30�C bis +60�C) untergebracht. Sie wurde am 28.04.2007 in Betrieb genommen.

Die Bilder werden �ber ein dLan-Netzwerk auf den Router �bertragen. Danach werden sie mit der Software �VisionGS BE� auf dem Rechner bearbeitet und zwischen Sonnenaufgang und -untergang im Abstand von einer Minute auf diese Seite �bertragen.

Der Bildausschnitt zeigt das Wetter und die Natur in s�dlicher Richtung vom Standort der Wetterstation aus gesehen.

 

 

 

Mit dem Link zu www.wetterklima.de gelangen Sie zu weiteren Webcams im ganzen Bundesgebiet

 Webcam der Wetterstation Drove

 

 

 

 

 

Wetterdaten - Freitag, 16.10.2020 - Drove (Gemeinde Kreuzau/Kreis Düren/Land NRW)     180 m über NN Voreifelwetter - Wetterstation Drove - Standort 50°43'47" - 06°30'49"
Wetterdaten: aktuell Freitag, 16.10.2020 14:30
Datum Zeit Temp. A. Feuchte A. Luftdruck Regen Wind Richtung Richtung Sonnenschein Helligkeit Taupunkt Windchill
16.10.2020 14:30 8,7 °C 92 % 1020,0 hPa 0,0 mm 1,3 km/h (1 Bft) W-SW±22.5° 250 ° 0 min 7,30 klux 7,5 °C 8,7 °C
16.10.2020 14:15 8,6 °C 93 % 1020,0 hPa 0,0 mm 3,1 km/h (1 Bft) W-NW±22.5° 285 ° 0 min 8,28 klux 7,5 °C 8,6 °C
16.10.2020 14:00 8,5 °C 93 % 1020,0 hPa 0,0 mm 4,5 km/h (1 Bft) N-NW±22.5° 340 ° 0 min 6,36 klux 7,4 °C 8,5 °C
16.10.2020 13:45 8,6 °C 92 % 1020,0 hPa 0,0 mm 0,6 km/h (0 Bft) N±22.5° 355 ° 0 min 4,89 klux 7,4 °C 8,6 °C
16.10.2020 13:30 8,5 °C 92 % 1020,0 hPa 0,0 mm 0,0 km/h (0 Bft) N-NO±22.5° 15 ° 0 min 6,39 klux 7,3 °C 8,5 °C
16.10.2020 13:15 8,5 °C 92 % 1020,0 hPa 0,0 mm 5,6 km/h (1 Bft) N-NW±67.5° 335 ° 0 min 5,71 klux 7,3 °C 7,9 °C
16.10.2020 13:00 8,5 °C 92 % 1020,0 hPa 0,0 mm 5,0 km/h (1 Bft) N-NW±45° 340 ° 0 min 6,78 klux 7,3 °C 8,1 °C
16.10.2020 12:45 8,5 °C 92 % 1020,0 hPa 0,0 mm 8,9 km/h (2 Bft) N-NW±67.5° 340 ° 0 min 8,97 klux 7,3 °C 7,1 °C
16.10.2020 12:30 8,4 °C 93 % 1020,0 hPa 0,0 mm 7,0 km/h (2 Bft) N-NW±22.5° 340 ° 0 min 8,70 klux 7,3 °C 7,4 °C
16.10.2020 12:15 8,3 °C 93 % 1020,0 hPa 0,0 mm 10,8 km/h (2 Bft) N-NW±22.5° 345 ° 0 min 8,17 klux 7,2 °C 6,5 °C
16.10.2020 12:00 8,2 °C 93 % 1020,0 hPa 0,0 mm 10,3 km/h (2 Bft) N-NW 345 ° 0 min 7,95 klux 7,1 °C 6,4 °C
16.10.2020 11:45 8,0 °C 93 % 1020,0 hPa 0,0 mm 9,2 km/h (2 Bft) N-NW±22.5° 340 ° 0 min 6,44 klux 6,9 °C 6,4 °C
16.10.2020 11:30 7,9 °C 93 % 1020,0 hPa 0,0 mm 10,7 km/h (2 Bft) N±45° 355 ° 0 min 5,28 klux 6,8 °C 6,0 °C
16.10.2020 11:15 7,8 °C 93 % 1020,0 hPa 0,0 mm 10,3 km/h (2 Bft) N±45° 350 ° 0 min 5,08 klux 6,7 °C 5,9 °C
16.10.2020 11:00 7,6 °C 93 % 1020,1 hPa 0,0 mm 8,6 km/h (2 Bft) N±67.5° 350 ° 0 min 4,06 klux 6,5 °C 6,1 °C
16.10.2020 10:45 7,6 °C 93 % 1020,1 hPa 0,0 mm 5,6 km/h (1 Bft) N-NW 340 ° 0 min 2,91 klux 6,5 °C 6,8 °C
16.10.2020 10:30 7,4 °C 93 % 1020,1 hPa 0,0 mm 9,7 km/h (2 Bft) N-NW±22.5° 335 ° 0 min 3,09 klux 6,3 °C 5,6 °C
16.10.2020 10:15 7,4 °C 93 % 1020,1 hPa 0,0 mm 9,6 km/h (2 Bft) N-NW±45° 340 ° 0 min 2,77 klux 6,3 °C 5,6 °C
16.10.2020 10:00 7,4 °C 93 % 1020,1 hPa 0,0 mm 10,6 km/h (2 Bft) N±67.5° 360 ° 0 min 3,39 klux 6,3 °C 5,4 °C
16.10.2020 09:45 7,2 °C 93 % 1020,1 hPa 0,0 mm 6,1 km/h (2 Bft) N±22.5° 355 ° 0 min 3,86 klux 6,1 °C 6,2 °C
16.10.2020 09:30 7,1 °C 93 % 1020,1 hPa 0,0 mm 5,5 km/h (1 Bft) N-NW±22.5° 335 ° 0 min 2,45 klux 6,0 °C 6,3 °C
16.10.2020 09:15 7,0 °C 93 % 1020,1 hPa 0,0 mm 6,5 km/h (2 Bft) N-NW±22.5° 340 ° 0 min 1,84 klux 5,9 °C 5,9 °C
16.10.2020 09:00 7,0 °C 93 % 1020,1 hPa 0,0 mm 8,2 km/h (2 Bft) N-NW±22.5° 345 ° 0 min 1,51 klux 5,9 °C 5,4 °C
16.10.2020 08:45 7,0 °C 93 % 1020,1 hPa 0,0 mm 9,8 km/h (2 Bft) N-NW±22.5° 345 ° 0 min 805 lux 5,9 °C 5,1 °C
16.10.2020 08:30 7,0 °C 92 % 1020,1 hPa 0,0 mm 13,8 km/h (3 Bft) N±22.5° 350 ° 0 min 639 lux 5,8 °C 4,4 °C
16.10.2020 08:15 7,1 °C 92 % 1019,1 hPa 0,0 mm 11,3 km/h (2 Bft) N-NW±22.5° 340 ° 0 min 522 lux 5,9 °C 4,9 °C
16.10.2020 08:00 7,2 °C 92 % 1019,1 hPa 0,0 mm 8,6 km/h (2 Bft) N-NW±22.5° 340 ° 0 min 100 lux 6,0 °C 5,6 °C
16.10.2020 07:45 7,2 °C 92 % 1019,1 hPa 0,0 mm 6,1 km/h (2 Bft) N-NW±22.5° 340 ° 0 min 0 lux 6,0 °C 6,2 °C
16.10.2020 07:30 7,2 °C 92 % 1019,1 hPa 0,0 mm 10,7 km/h (2 Bft) N-NW 340 ° 0 min 0 lux 6,0 °C 5,2 °C
16.10.2020 07:15 7,2 °C 92 % 1019,1 hPa 0,0 mm 10,7 km/h (2 Bft) N-NW±22.5° 345 ° 0 min 0 lux 6,0 °C 5,2 °C
16.10.2020 07:00 7,3 °C 91 % 1019,1 hPa 0,0 mm 10,8 km/h (2 Bft) N±22.5° 350 ° 0 min 0 lux 5,9 °C 5,3 °C
16.10.2020 06:45 7,4 °C 91 % 1019,1 hPa 0,0 mm 8,5 km/h (2 Bft) N-NW±67.5° 345 ° 0 min 0 lux 6,0 °C 5,8 °C
16.10.2020 06:30 7,4 °C 91 % 1019,1 hPa 0,0 mm 11,6 km/h (2 Bft) N-NW±22.5° 345 ° 0 min 0 lux 6,0 °C 5,2 °C
16.10.2020 06:15 7,5 °C 91 % 1019,0 hPa 0,0 mm 8,0 km/h (2 Bft) N±22.5° 350 ° 0 min 0 lux 6,1 °C 6,1 °C
16.10.2020 06:00 7,5 °C 91 % 1019,0 hPa 0,0 mm 8,5 km/h (2 Bft) N-NW±22.5° 330 ° 0 min 0 lux 6,1 °C 6,0 °C
16.10.2020 05:45 7,6 °C 90 % 1019,0 hPa 0,0 mm 8,6 km/h (2 Bft) N-NW±22.5° 340 ° 0 min 0 lux 6,1 °C 6,1 °C
16.10.2020 05:30 7,6 °C 90 % 1019,0 hPa 0,0 mm 5,3 km/h (1 Bft) N-NW±22.5° 345 ° 0 min 0 lux 6,1 °C 6,9 °C
16.10.2020 05:15 7,7 °C 90 % 1019,0 hPa 0,0 mm 4,6 km/h (1 Bft) N-NW 340 ° 0 min 0 lux 6,2 °C 7,3 °C
16.10.2020 05:00 7,7 °C 90 % 1019,0 hPa 0,0 mm 0,8 km/h (0 Bft) N±22.5° 360 ° 0 min 0 lux 6,2 °C 7,7 °C
16.10.2020 04:45 7,8 °C 90 % 1019,0 hPa 0,0 mm 3,8 km/h (1 Bft) N-NW±22.5° 345 ° 0 min 0 lux 6,3 °C 7,8 °C
16.10.2020 04:30 7,8 °C 90 % 1019,0 hPa 0,0 mm 1,0 km/h (0 Bft) N 350 ° 0 min 0 lux 6,3 °C 7,8 °C
16.10.2020 04:15 7,8 °C 90 % 1019,0 hPa 0,0 mm 6,3 km/h (2 Bft) N±22.5° 360 ° 0 min 0 lux 6,3 °C 6,9 °C
16.10.2020 04:00 7,9 °C 90 % 1019,0 hPa 0,0 mm 0,7 km/h (0 Bft) N-NW 345 ° 0 min 0 lux 6,4 °C 7,9 °C
16.10.2020 03:45 7,9 °C 90 % 1019,0 hPa 0,0 mm 8,1 km/h (2 Bft) N-NW±22.5° 340 ° 0 min 0 lux 6,4 °C 6,5 °C
16.10.2020 03:30 8,0 °C 90 % 1019,0 hPa 0,0 mm 7,0 km/h (2 Bft) N-NW 340 ° 0 min 0 lux 6,5 °C 6,9 °C
16.10.2020 03:15 8,0 °C 89 % 1019,0 hPa 0,0 mm 5,4 km/h (1 Bft) N-NW±22.5° 340 ° 0 min 0 lux 6,3 °C 7,4 °C
16.10.2020 03:00 8,1 °C 89 % 1019,0 hPa 0,0 mm 3,6 km/h (1 Bft) N-NW±22.5° 345 ° 0 min 0 lux 6,4 °C 8,1 °C
16.10.2020 02:45 8,1 °C 89 % 1019,0 hPa 0,0 mm 0,3 km/h (0 Bft) N 350 ° 0 min 0 lux 6,4 °C 8,1 °C
16.10.2020 02:30 8,2 °C 89 % 1019,0 hPa 0,0 mm 0,1 km/h (0 Bft) N 355 ° 0 min 0 lux 6,5 °C 8,2 °C
16.10.2020 02:15 8,2 °C 88 % 1019,0 hPa 0,0 mm 0,6 km/h (0 Bft) N±22.5° 350 ° 0 min 0 lux 6,3 °C 8,2 °C
16.10.2020 02:00 8,3 °C 88 % 1019,0 hPa 0,0 mm 0,3 km/h (0 Bft) N-NW 345 ° 0 min 0 lux 6,4 °C 8,3 °C
16.10.2020 01:45 8,4 °C 88 % 1019,0 hPa 0,0 mm 0,0 km/h (0 Bft) N-NW 340 ° 0 min 0 lux 6,5 °C 8,4 °C
16.10.2020 01:30 8,4 °C 88 % 1019,0 hPa 0,0 mm 0,0 km/h (0 Bft) N 350 ° 0 min 0 lux 6,5 °C 8,4 °C
16.10.2020 01:15 8,4 °C 88 % 1019,0 hPa 0,0 mm 0,1 km/h (0 Bft) N 350 ° 0 min 0 lux 6,5 °C 8,4 °C
16.10.2020 01:00 8,4 °C 88 % 1019,0 hPa 0,0 mm 0,1 km/h (0 Bft) N-NW 345 ° 0 min 0 lux 6,5 °C 8,4 °C
16.10.2020 00:45 8,5 °C 88 % 1019,0 hPa 0,0 mm 1,0 km/h (0 Bft) N±22.5° 350 ° 0 min 0 lux 6,6 °C 8,5 °C
16.10.2020 00:30 8,6 °C 88 % 1019,0 hPa 0,0 mm 4,3 km/h (1 Bft) N±22.5° 355 ° 0 min 0 lux 6,7 °C 8,6 °C
16.10.2020 00:15 8,6 °C 88 % 1019,0 hPa 0,0 mm 0,4 km/h (0 Bft) N-NW 330 ° 0 min 0 lux 6,7 °C 8,6 °C
16.10.2020 00:00 8,7 °C 88 % 1019,0 hPa 0,0 mm 0,3 km/h (0 Bft) N 360 ° 0 min 0 lux 6,8 °C 8,7 °C
_ Min-Zeit 08:30 00:00 00:00 - 01:30 - - - - 08:30 08:30
Minimum _ 7,0 °C 88 % 1019,0 hPa - 0,0 km/h (0 Bft) - - - - 5,8 °C 4,4 °C
_ Max-Zeit 00:00 08:45 08:30 00:00 08:30 - - 00:00 12:45 14:15 00:00
Maximum _ 8,7 °C 93 % 1020,1 hPa 0,0 mm 13,8 km/h
N (3 Bft)
- - 0 min 8,97 klux 7,5 °C 8,7 °C
Durchschnitt _ 7,9 °C 91 % 1019,5 hPa #0,0 mm 5,7 km/h (1 Bft) N-NW - #0 min. 2,11 klux 6,5 °C 7,0 °C